COSMOS 2491 DEB *, 45128

Orbit data source: Space-Track

COSMOS 2491 DEB *, 45128 is space debris in LEO originally from a launch on Wed, 25 Dec 2013 UTC launched from the Plesetsk Missile And Space Complex (PKMTR). Debris objects in space refer to the collection of defunct objects orbiting the Earth. Examples of debris include non-operational satellites, rocket bodies, and fragments generated from explosions, collisions, or faulty payload assembly.

Loading next visibility...
Identifier
45128, 2013-076AA
Orbit
LEO
Last TLE update
2 days ago
Origin
Manufacturer
TsNIIKhM
Mission
Spacecraft
Bus & Motor
Unknown
Mass
Unknown
Launch date (UTC)
2013-12-25 (12 years ago)
Launch vehicle
Unknown
Launch site
Plesetsk Missile And Space Complex (PKMTR)
Object type
Payload
Rocket body
Debris
Shape & HBR
Unknown
Radar Cross Section
Small (<0.1 m²)

Expand to show TLE details & history

TLE from 2 days ago
0 COSMOS 2491 DEB *
1 45128U 13076AA  25180.76074587  .00002775  00000-0  89957-3 0  9999
2 45128  81.2103   1.2050 0020835 216.0652 143.9130 14.38652456 11293
Epoch: 2025-06-29T18:15Z
TLE epoch observation values (Epoch: 2025-06-29T18:15:28.443Z)
Latitude
-0.00004°
Longitude
169.25621°
Altitude
777.928 km
Speed
7.459 km/s
True Right ascension
00h 04m 49s
True Declination
0° 00' 00"
Sunlit
Object was in daylight at epoch
Visualization orbit readout
Latitude
-68.77173°
Longitude
144.23652°
Altitude
785.703 km
Speed
7.462 km/s
Apparent Right ascension
08h 47m 08s
Apparent Declination
-77° 19' 53"
Sunlit
Object is in full shadow
Visualization observer readout
Local Sidereal Time
21:37:48
Azimuth
175.499° S
Elevation
-52.2°
Doppler factor
1
Orbital elements
Apogee altitude
774.964 km
Perigee altitude
745.219 km
Semi-major axis
7,138.229 km
Eccentricity
0.00208
Inclination
81.2103°
RAAN
1.205°
Arg. of periapsis
216.0652°
True anomaly
Unknown
Mean anomaly
143.913°
Eccentric anomaly
Unknown
Mean motion
3.5988 °/min
Orbital period
100.03 mins
BSTAR
0.00089957
Loading maneuver chart data...
Loading SW <> Apogee altitude chart data...
Loading historical data...
Loading historical data...
Loading historical data...
Loading historical data...
Loading historical data...
Loading historical data...
Loading historical data...

COSMOS 2491 DEB * Visibility forecast

Observer location: undefined°, undefined°

Span
Click to sort rows by Start time (UTC) header in descending order
Start Az.
Max El. time (UTC)
Max El. Az.
Max El.
End time (UTC)
End Az.
8 mins2025-07-01 12:06:26.199Z154.632° SSE2025-07-01 12:10:26.199Z89.267° E31.899°2025-07-01 12:14:26.199Z28.822° NE
7 mins2025-07-01 13:48:26.199Z245.456° WSW2025-07-01 13:51:26.199Z288.229° WNW21.796°2025-07-01 13:55:26.199Z340.529° N
6 mins2025-07-01 22:35:26.199Z31.717° NE2025-07-01 22:38:26.199Z75.193° E19.752°2025-07-01 22:41:26.199Z114.601° SE
7 mins2025-07-02 00:16:26.199Z325.072° NNW2025-07-02 00:19:26.199Z264.351° W33.519°2025-07-02 00:23:26.199Z200.958° SSW
|